[[{"header":{"parameterUnit":"m.s-1","parameterCategory":1,"la1":30.2991,"la2":30.254,"lo1":-89.0895,"lo2":-89.0444,"dy":0.0017,"dx":0.0017,"nx":28,"ny":28,"refTime":"2024-03-04T09:00:00:Z","depth":0,"parameterNumber":2,"parameterNumberName":"U-component_of_WINDS"},"data":[0,0,0,0,0,0,0,0,0,0,0,0,0,0,0,0,0,0,0,0,0,0,0,0,0,0,0,0,0,0,0,0,0,0,0,0,0,0,0,0,0,0,0,0,0,0,0,0,0,0,0,0,0,0,0,0,0,0,-5.259,-5.259,0,-5.2585,-5.2585,-5.2585,-5.2457,-5.2454,-5.245,-5.2447,-5.2442,-5.2445,-5.2447,0,0,0,0,0,0,0,0,0,0,0,0,0,-5.249,-5.2492,-5.259,-5.259,-5.259,-5.2585,-5.2585,-5.2585,-5.2457,-5.2453,-5.2449,-5.2446,-5.2441,-5.2444,-5.2448,0,0,0,0,0,0,0,0,0,0,0,0,0,-5.2514,-5.2493,-5.259,-5.2526,-5.252,-5.2585,-5.2585,-5.2585,-5.2458,-5.2453,-5.2448,-5.2444,-5.244,-5.2444,-5.2448,-5.2575,0,0,-5.2462,-5.2464,0,0,0,0,0,0,0,0,-5.2513,-5.2518,-5.2535,-5.253,-5.2524,-5.2517,-5.2548,-5.2582,-5.246,-5.2482,-5.2447,-5.2441,-5.2471,-5.2472,-5.2482,-5.2574,-5.2574,-5.2462,-5.2465,-5.2467,-5.2468,0,0,0,0,0,0,0,-5.2511,-5.2517,-5.2588,-5.2536,-5.2529,-5.2497,-5.2495,-5.2554,-5.2504,-5.2479,-5.247,-5.2471,-5.2467,-5.2478,-5.2481,-5.2574,-5.2462,-5.2466,-5.2469,-5.247,-5.2772,-5.2777,0,0,0,0,0,0,-5.2518,-5.2517,-5.2588,-5.2588,-5.2506,-5.2503,-5.2501,-5.2524,-5.2503,-5.2495,-5.2476,-5.2465,-5.2473,-5.2476,-5.248,-5.2627,-5.2467,-5.2471,-5.2473,-5.2766,-5.2773,-5.2779,0,0,0,0,0,0,-5.2517,-5.2526,-5.2588,-5.255,-5.2555,-5.251,-5.2537,-5.2527,-5.2538,-5.25,-5.2491,-5.2496,-5.2469,-5.2474,-5.2553,-5.2625,-5.2473,-5.2477,-5.276,-5.2768,-5.2776,-5.2922,0,0,0,0,0,0,-5.2514,-5.2526,-5.2573,-5.2552,-5.2558,-5.2661,-5.2542,-5.253,-5.2546,-5.2533,-5.2517,-5.251,-5.2466,-5.2547,-5.2557,-5.2628,-5.248,-5.2753,-5.2764,-5.2773,-5.291,-5.2934,-5.2954,0,0,0,0,0,-5.2511,-5.2614,-5.2576,-5.2586,-5.2616,-5.2665,-5.2668,-5.2616,-5.2552,-5.2599,-5.2576,-5.251,-5.2616,-5.2556,-5.2566,-5.264,-5.2748,-5.2761,-5.2772,-5.29,-5.2929,-5.2954,0,0,0,0,0,0,-5.2644,-5.261,-5.2567,-5.2666,-5.267,-5.2643,-5.2701,-5.2648,-5.2669,-5.2655,-5.2589,-5.2587,-5.2676,-5.2666,-5.2599,-5.2762,-5.2671,-5.2686,-5.2765,-5.2792,-5.2813,-5.2813,-5.2484,0,0,0,0,0,-5.2685,-5.2728,-5.2696,-5.2786,-5.279,-5.2746,-5.2765,-5.2725,-5.2725,-5.2726,-5.2707,-5.2711,-5.2744,-5.2768,-5.2797,-5.291,-5.2904,-5.2966,-5.2988,-5.3006,-5.3019,-5.3078,-5.3105,-5.2818,-5.2818,-5.2818,0,0,-5.2769,-5.2756,-5.2787,-5.2813,-5.281,-5.2856,-5.2748,-5.28,-5.2834,-5.2734,-5.2806,-5.2794,-5.2793,-5.2889,-5.2931,-5.2884,-5.3098,-5.3021,-5.3036,-5.3039,-5.3094,-5.3121,-5.3145,-5.2826,-5.2825,-5.2824,0,0,-5.2946,-5.2941,-5.3016,-5.3017,-5.3015,-5.2986,-5.3004,-5.2987,-5.2975,-5.3047,-5.2973,-5.3013,-5.3073,-5.3075,-5.3085,-5.3267,-5.3208,-5.3279,-5.3392,-5.3451,-5.3474,-5.3494,-5.3558,-5.3583,-5.3292,-5.3293,-5.3293,0,-5.305,-5.3117,-5.3061,-5.3119,-5.3133,-5.3047,-5.3123,-5.3126,-5.3134,-5.3146,-5.3094,-5.3169,-5.3162,-5.3258,-5.3303,-5.3314,-5.3333,-5.3279,-5.3475,-5.3495,-5.3512,-5.3573,-5.3598,-5.3301,-5.33,-5.3299,-5.3299,0,-5.3246,-5.3293,-5.3354,-5.3366,-5.3387,-5.3454,-5.3409,-5.3437,-5.3396,-5.3373,-5.3449,-5.3438,-5.3464,-5.3485,-5.3445,-5.3576,-5.3547,-5.3487,-5.3393,-5.3549,-5.3605,-5.3628,-5.3314,-5.331,-5.3308,-5.3306,0,0,-5.3501,-5.3484,-5.3507,-5.3512,-5.3506,-5.3542,-5.3606,-5.3633,-5.3658,-5.3668,-5.372,-5.3775,-5.3719,-5.373,-5.3691,-5.3743,-5.3888,-5.3675,-5.3674,-5.3715,-5.4033,-5.4077,-5.4105,-5.3851,-5.3855,-5.3858,-5.4032,0,-5.3671,-5.3779,-5.3733,-5.3846,-5.3889,-5.381,-5.3866,-5.3869,-5.385,-5.3885,-5.3864,-5.3903,-5.3827,-5.3833,-5.3882,-5.386,-5.3951,-5.3848,-5.3898,-5.39,-5.3898,-5.4134,-5.418,-5.4345,-5.4054,-5.4058,-5.406,0,-5.3883,-5.3903,-5.4021,-5.401,-5.4026,-5.4077,-5.4099,-5.4133,-5.4136,-5.4118,-5.4133,-5.4082,-5.4145,-5.4055,-5.4141,-5.4072,-5.409,-5.4083,-5.4089,-5.4089,-5.3988,-5.414,-5.4396,-5.4421,-5.4095,-5.4092,-5.4089,0,-5.4057,-5.4114,-5.4192,-5.4199,-5.4187,-5.4225,-5.4223,-5.422,-5.424,-5.426,-5.4272,-5.4299,-5.4313,-5.4335,-5.4294,-5.4232,-5.4386,-5.4292,-5.4373,-5.4374,-5.4406,-5.4404,-5.4668,-5.4422,-5.4422,-5.4421,-5.4421,0,-5.425,-5.4325,-5.427,-5.4317,-5.44,-5.4347,-5.443,-5.4418,-5.4418,-5.4462,-5.4396,-5.444,-5.4383,-5.4421,-5.439,-5.4466,-5.4473,-5.4461,-5.4451,-5.4465,-5.4467,-5.4474,-5.4461,-5.4428,-5.4426,-5.4425,-5.4424,0,-5.4456,-5.4422,-5.4502,-5.4487,-5.4485,-5.4546,-5.4532,-5.4576,-5.4554,-5.4612,-5.4622,-5.4587,-5.4629,-5.4591,-5.4631,-5.4609,-5.4711,-5.4686,-5.471,-5.4702,-5.4785,-5.4777,-5.5061,-5.5095,-5.483,-5.4832,-5.4834,0,-5.458,-5.4636,-5.4628,-5.4654,-5.4655,-5.4697,-5.4718,-5.4669,-5.4693,-5.4703,-5.4746,-5.4783,-5.4809,-5.488,-5.4858,-5.4889,-5.4862,-5.496,-5.4866,-5.488,-5.4862,-5.4859,-5.4864,-5.4978,-5.4981,-5.4984,-5.4986,0,-5.4804,-5.4786,-5.4818,-5.4846,-5.4873,-5.4892,-5.4906,-5.4931,-5.4881,-5.4912,-5.4955,-5.4976,-5.5018,-5.5055,-5.5079,-5.5076,-5.5024,-5.5016,-5.5036,-5.505,-5.5062,-5.5056,-5.476,-5.5009,-5.5007,-5.5005,-5.5004,-5.5003,-5.4972,-5.5019,-5.5021,-5.5059,-5.5066,-5.5081,-5.5122,-5.5107,-5.5142,-5.5172,-5.5142,-5.5194,-5.5198,-5.5225,-5.523,-5.527,-5.5229,-5.5258,-5.5265,-5.5273,-5.5284,-5.5058,-5.5274,-5.5274,-5.5273,-5.5272,-5.5272,0,-5.5191,-5.519,-5.5226,-5.5249,-5.5281,-5.5231,-5.5244,-5.5273,-5.532,-5.5329,-5.5357,-5.5407,-5.5444,-5.5427,-5.5459,-5.5495,-5.5472,-5.5505,-5.55,-5.5501,-5.532,-5.5298,-5.5523,-5.5523,-5.5523,-5.5523,-5.5523,-5.5523,-5.5309,-5.5385,-5.5368,-5.5448,-5.5445,-5.5496,-5.5509,-5.5523,-5.553,-5.5589,-5.562,-5.5609,-5.5608,-5.564,-5.5672,-5.5666,-5.5681,-5.5723,-5.5708,-5.5538,-5.5513,-5.549,-5.5469,-5.5727,-5.5727,-5.5885,-5.5887,-5.5888]},{"header":{"parameterUnit":"m.s-1","parameterCategory":1,"la1":30.2991,"la2":30.254,"lo1":-89.0895,"lo2":-89.0444,"dy":0.0017,"dx":0.0017,"nx":28,"ny":28,"refTime":"2024-03-04T09:00:00:Z","depth":0,"parameterNumber":3,"parameterNumberName":"V-component_of_WINDS"},"data":[0,0,0,0,0,0,0,0,0,0,0,0,0,0,0,0,0,0,0,0,0,0,0,0,0,0,0,0,0,0,0,0,0,0,0,0,0,0,0,0,0,0,0,0,0,0,0,0,0,0,0,0,0,0,0,0,0,0,0.8098,0.8098,0,0.8119,0.8119,0.8119,0.815,0.8151,0.8152,0.8152,0.817,0.817,0.817,0,0,0,0,0,0,0,0,0,0,0,0,0,0.8085,0.8085,0.8098,0.8098,0.8098,0.8119,0.8119,0.8119,0.815,0.8151,0.8152,0.8152,0.817,0.817,0.817,0,0,0,0,0,0,0,0,0,0,0,0,0,0.8096,0.8085,0.8098,0.8117,0.8118,0.8119,0.8119,0.8119,0.815,0.8151,0.8152,0.8153,0.817,0.817,0.817,0.8152,0,0,0.817,0.8169,0,0,0,0,0,0,0,0,0.8096,0.8097,0.8114,0.8115,0.8117,0.8133,0.8121,0.813,0.815,0.8138,0.8152,0.8153,0.8157,0.8158,0.816,0.8153,0.8154,0.817,0.8169,0.8169,0.8169,0,0,0,0,0,0,0,0.8095,0.8096,0.8106,0.8114,0.8116,0.8124,0.8126,0.8123,0.8142,0.8139,0.8141,0.8144,0.8158,0.816,0.816,0.8154,0.817,0.8169,0.8169,0.8169,0.8138,0.8137,0,0,0,0,0,0,0.8091,0.8095,0.8105,0.8107,0.8108,0.8123,0.8126,0.8127,0.8142,0.8146,0.8143,0.8145,0.8159,0.816,0.8161,0.8144,0.8169,0.8169,0.8169,0.8139,0.8138,0.8137,0,0,0,0,0,0,0.8091,0.8092,0.8105,0.8102,0.8104,0.8123,0.8123,0.8127,0.8129,0.8145,0.8149,0.8141,0.816,0.8161,0.8155,0.8144,0.8169,0.8169,0.814,0.8138,0.8137,0.8107,0,0,0,0,0,0,0.8091,0.8092,0.8085,0.8101,0.8104,0.8098,0.8123,0.8127,0.8129,0.8132,0.8145,0.8147,0.8161,0.8155,0.8155,0.8145,0.8169,0.8141,0.8139,0.8138,0.8109,0.8105,0.8101,0,0,0,0,0,0.809,0.8074,0.8085,0.8086,0.8096,0.8098,0.8099,0.8116,0.8128,0.8122,0.8133,0.8147,0.8146,0.8154,0.8155,0.8144,0.8141,0.8139,0.8138,0.8111,0.8106,0.8102,0,0,0,0,0,0,0.8054,0.8077,0.8088,0.8078,0.8086,0.8103,0.8095,0.8109,0.8113,0.8116,0.8135,0.8138,0.813,0.8137,0.8145,0.813,0.8146,0.8144,0.8125,0.8121,0.8117,0.8115,0.8169,0,0,0,0,0,0.8046,0.8046,0.8065,0.8054,0.8057,0.8076,0.8077,0.809,0.8098,0.8101,0.8112,0.8119,0.8121,0.8121,0.8124,0.8111,0.8115,0.8104,0.81,0.8097,0.8095,0.8091,0.8087,0.8131,0.8131,0.8131,0,0,0.8026,0.8039,0.8037,0.8047,0.8055,0.8054,0.8078,0.8076,0.8076,0.8101,0.8097,0.8105,0.8115,0.8106,0.8102,0.8111,0.8084,0.8095,0.8092,0.8092,0.8088,0.8084,0.8081,0.813,0.813,0.813,0,0,0.7992,0.8001,0.7994,0.8002,0.8015,0.8028,0.8026,0.8042,0.8049,0.8046,0.8065,0.8066,0.8067,0.8074,0.8078,0.8051,0.8064,0.8051,0.803,0.8026,0.8023,0.802,0.8011,0.8008,0.8049,0.8049,0.8049,0,0.7966,0.7967,0.7988,0.7986,0.799,0.8015,0.8009,0.8015,0.8027,0.803,0.804,0.8045,0.8053,0.8047,0.8041,0.8043,0.8042,0.8049,0.8022,0.8019,0.8017,0.8008,0.8005,0.8047,0.8047,0.8048,0.8048,0,0.7936,0.7937,0.793,0.7943,0.7947,0.7942,0.7962,0.7963,0.7977,0.7989,0.7986,0.7998,0.8004,0.8004,0.8015,0.8,0.8006,0.8018,0.8035,0.801,0.8003,0.8,0.8045,0.8045,0.8046,0.8046,0,0,0.7877,0.7905,0.7902,0.791,0.7927,0.7928,0.7925,0.7933,0.7934,0.7943,0.7942,0.7945,0.7958,0.7962,0.7975,0.7972,0.7951,0.7985,0.7986,0.7979,0.7937,0.7927,0.7923,0.7961,0.7961,0.796,0.7937,0,0.7846,0.7844,0.7864,0.7857,0.7858,0.7884,0.7882,0.7893,0.7905,0.7908,0.7921,0.7924,0.794,0.7944,0.7941,0.7954,0.7943,0.7956,0.796,0.796,0.7957,0.7919,0.7908,0.7885,0.7934,0.7933,0.7933,0,0.7809,0.7818,0.7811,0.7832,0.7834,0.7831,0.7842,0.7845,0.7858,0.7867,0.7874,0.7891,0.789,0.7907,0.7908,0.7916,0.7919,0.7926,0.7926,0.7926,0.7945,0.7919,0.7878,0.7875,0.7929,0.7929,0.7929,0,0.7767,0.7778,0.7776,0.7782,0.7806,0.7804,0.7814,0.7828,0.7833,0.7842,0.7845,0.7854,0.7858,0.7864,0.7883,0.7893,0.7882,0.7899,0.7889,0.7889,0.7885,0.7884,0.7844,0.7887,0.7887,0.7887,0.7887,0,0.7731,0.7726,0.7758,0.7757,0.7753,0.7777,0.7772,0.7784,0.7798,0.7799,0.7822,0.7823,0.7848,0.7852,0.7866,0.7865,0.7867,0.7874,0.7878,0.7872,0.7871,0.7874,0.7876,0.7886,0.7886,0.7886,0.7887,0,0.7683,0.7704,0.7704,0.7728,0.7735,0.7731,0.7751,0.7751,0.7766,0.7768,0.777,0.7793,0.78,0.782,0.783,0.784,0.7835,0.7842,0.7831,0.7833,0.7822,0.7823,0.7781,0.7778,0.7823,0.7822,0.7822,0,0.7658,0.7655,0.768,0.7684,0.7693,0.7699,0.7704,0.7729,0.7734,0.7751,0.7749,0.7758,0.7766,0.7775,0.7793,0.7802,0.7809,0.7794,0.7811,0.7806,0.781,0.781,0.781,0.779,0.779,0.7789,0.7789,0,0.7611,0.7623,0.7631,0.7644,0.765,0.7661,0.7673,0.7674,0.7702,0.7706,0.7714,0.7721,0.7734,0.7742,0.7755,0.7765,0.7782,0.7784,0.7782,0.7776,0.777,0.7774,0.7821,0.7784,0.7785,0.7785,0.7785,0.7786,0.7575,0.7574,0.7593,0.7602,0.7614,0.7625,0.7628,0.7644,0.7652,0.7665,0.7679,0.7686,0.7702,0.7721,0.773,0.7736,0.7745,0.7742,0.7741,0.774,0.7738,0.777,0.7738,0.7739,0.7739,0.7739,0.7739,0,0.753,0.7544,0.7552,0.757,0.7577,0.7595,0.761,0.7614,0.7621,0.7635,0.7644,0.7654,0.7664,0.7683,0.7695,0.7696,0.7704,0.7698,0.7698,0.77,0.7729,0.773,0.7691,0.7691,0.7691,0.7691,0.7691,0.7691,0.7508,0.7509,0.7524,0.7532,0.7546,0.7554,0.7562,0.7573,0.7585,0.7596,0.7605,0.7618,0.7635,0.7649,0.7658,0.7664,0.7667,0.7659,0.7667,0.7693,0.7698,0.7702,0.7703,0.7659,0.7659,0.7638,0.7638,0.7637]}]]